This is the latest recevied weather packets stored in our database for station/object SP1BMW-13. If no packets are shown the sender has not sent any weather packets the latest 10 day(s).
| Time | Temp. | Humidity | Pressure | Rain* | Wind** | Luminosity | Snow |
|---|---|---|---|---|---|---|---|
| 1778223360 | 10° C | 62% | 1019.8 hPa | 0 mm | 1.34 m/s, 153° | 333 W/m² | - |
| 1778223300 | 10° C | 62% | 1019.8 hPa | 0 mm | 0.89 m/s, 28° | 334 W/m² | - |
| 1778223240 | 10° C | 62% | 1019.7 hPa | 0 mm | 1.79 m/s, 15° | 336 W/m² | - |
| 1778223180 | 10° C | 64% | 1019.7 hPa | 0 mm | 0.89 m/s, 33° | 336 W/m² | - |
| 1778223120 | 10° C | 64% | 1019.9 hPa | 0 mm | 1.34 m/s, 333° | 333 W/m² | - |
| 1778223059 | 10° C | 64% | 1019.7 hPa | 0 mm | 0.89 m/s, 29° | 326 W/m² | - |
| 1778223000 | 10° C | 64% | 1019.7 hPa | 0 mm | 1.79 m/s, 316° | 323 W/m² | - |
| 1778222939 | 10° C | 64% | 1019.8 hPa | 0 mm | 1.79 m/s, 335° | 234 W/m² | - |
| 1778222883 | 10° C | 66% | 1019.6 hPa | 0 mm | 1.34 m/s, 345° | 313 W/m² | - |
| 1778222820 | 10° C | 65% | 1019.5 hPa | 0 mm | 0.89 m/s, 351° | 305 W/m² | - |
| 1778222760 | 10° C | 64% | 1019.7 hPa | 0 mm | 2.68 m/s, 47° | 309 W/m² | - |
| 1778222700 | 10° C | 65% | 1019.4 hPa | 0 mm | 1.34 m/s, 14° | 313 W/m² | - |
| 1778222640 | 9.44° C | 67% | 1019.5 hPa | 0 mm | 0.89 m/s, 24° | 192 W/m² | - |
| 1778222580 | 9.44° C | 66% | 1019.6 hPa | 0 mm | 0.45 m/s, 332° | 301 W/m² | - |
| 1778222520 | 9.44° C | 66% | 1019.8 hPa | 0 mm | 0.89 m/s, 346° | 301 W/m² | - |
| 1778222460 | 9.44° C | 67% | 1019.7 hPa | 0 mm | 1.34 m/s, 41° | 301 W/m² | - |
| 1778222399 | 9.44° C | 67% | 1019.8 hPa | 0 mm | 0.89 m/s, 287° | 300 W/m² | - |
| 1778222340 | 9.44° C | 67% | 1019.6 hPa | 0 mm | 2.68 m/s, 7° | 234 W/m² | - |
| 1778222279 | 9.44° C | 67% | 1019.6 hPa | 0 mm | 0.45 m/s, 27° | 307 W/m² | - |
| 1778222220 | 8.89° C | 68% | 1019.7 hPa | 0 mm | 1.79 m/s, 350° | 320 W/m² | - |
| 1778222160 | 8.89° C | 70% | 1019.5 hPa | 0 mm | 0.89 m/s, 55° | 339 W/m² | - |
| 1778222100 | 8.33° C | 70% | 1019.6 hPa | 0 mm | 0.89 m/s, 316° | 306 W/m² | - |
| 1778222040 | 8.33° C | 69% | 1019.6 hPa | 0 mm | 2.68 m/s, 46° | 329 W/m² | - |
| 1778221980 | 8.33° C | 69% | 1019.6 hPa | 0 mm | 0.45 m/s, 308° | 239 W/m² | - |
| 1778221921 | 8.89° C | 69% | 1019.5 hPa | 0 mm | 1.79 m/s, 39° | 183 W/m² | - |
* Rain latest hour (hover to see other rain measurements)
** Current wind speed in m/s (hover to see current wind gust speed)